Year,Month,Day,Hour,Minute,Value (Times are PST for temperature in C)
2009,06,05,00,00,19.20
2009,06,05,00,01,19.20
2009,06,05,00,02,19.20
2009,06,05,00,03,19.10
2009,06,05,00,04,19.10
2009,06,05,00,05,19.10
2009,06,05,00,06,19.00
2009,06,05,00,07,18.90
2009,06,05,00,08,18.90
2009,06,05,00,09,18.80
2009,06,05,00,10,18.70
2009,06,05,00,11,18.60
2009,06,05,00,12,18.50
2009,06,05,00,13,18.40
2009,06,05,00,14,18.40
2009,06,05,00,15,18.30
2009,06,05,00,16,18.30
2009,06,05,00,17,18.20
2009,06,05,00,18,18.20
2009,06,05,00,19,18.20
2009,06,05,00,20,18.20
2009,06,05,00,21,18.20
2009,06,05,00,22,18.20
2009,06,05,00,23,18.20
2009,06,05,00,24,18.20
2009,06,05,00,25,18.20
2009,06,05,00,26,18.10
2009,06,05,00,27,18.10
2009,06,05,00,28,18.10
2009,06,05,00,29,18.10
2009,06,05,00,30,18.10
2009,06,05,00,31,18.10
2009,06,05,00,32,18.10
2009,06,05,00,33,18.10
2009,06,05,00,34,18.10
2009,06,05,00,35,18.10
2009,06,05,00,36,18.10
2009,06,05,00,37,18.10
2009,06,05,00,38,18.10
2009,06,05,00,39,18.10
2009,06,05,00,40,18.10
2009,06,05,00,41,18.10
2009,06,05,00,42,18.10
2009,06,05,00,43,18.10
2009,06,05,00,44,18.10
2009,06,05,00,45,18.00
2009,06,05,00,46,18.00
2009,06,05,00,47,18.00
2009,06,05,00,48,18.00
2009,06,05,00,49,17.90
2009,06,05,00,50,17.90
2009,06,05,00,51,17.90
2009,06,05,00,52,17.90
2009,06,05,00,53,17.90
2009,06,05,00,54,17.90
2009,06,05,00,55,17.90
2009,06,05,00,56,17.90
2009,06,05,00,57,18.00
2009,06,05,00,58,18.00
2009,06,05,00,59,18.10
2009,06,05,01,00,18.10
2009,06,05,01,01,18.20
2009,06,05,01,02,18.20
2009,06,05,01,03,18.20
2009,06,05,01,04,18.30
2009,06,05,01,05,18.40
2009,06,05,01,06,18.50
2009,06,05,01,07,18.60
2009,06,05,01,08,18.60
2009,06,05,01,09,18.70
2009,06,05,01,10,18.70
2009,06,05,01,11,18.70
2009,06,05,01,12,18.80
2009,06,05,01,13,18.80
2009,06,05,01,14,18.90
2009,06,05,01,15,18.90
2009,06,05,01,16,18.90
2009,06,05,01,17,18.90
2009,06,05,01,18,18.90
2009,06,05,01,19,18.90
2009,06,05,01,20,19.00
2009,06,05,01,21,19.10
2009,06,05,01,22,19.10
2009,06,05,01,23,19.20
2009,06,05,01,24,19.20
2009,06,05,01,25,19.30
2009,06,05,01,26,19.30
2009,06,05,01,27,19.40
2009,06,05,01,28,19.50
2009,06,05,01,29,19.60
2009,06,05,01,30,19.60
2009,06,05,01,31,19.70
2009,06,05,01,32,19.80
2009,06,05,01,33,19.80
2009,06,05,01,34,19.90
2009,06,05,01,35,19.90
2009,06,05,01,36,20.00
2009,06,05,01,37,20.00
2009,06,05,01,38,20.10
2009,06,05,01,39,20.20
2009,06,05,01,40,20.40
2009,06,05,01,41,20.50
2009,06,05,01,42,20.60
2009,06,05,01,43,20.80
2009,06,05,01,44,20.90
2009,06,05,01,45,21.00
2009,06,05,01,46,21.10
2009,06,05,01,47,21.10
2009,06,05,01,48,21.20
2009,06,05,01,49,21.30
2009,06,05,01,50,21.30
2009,06,05,01,51,21.40
2009,06,05,01,52,21.40
2009,06,05,01,53,21.40
2009,06,05,01,54,21.40
2009,06,05,01,55,21.40
2009,06,05,01,56,21.40
2009,06,05,01,57,21.50
2009,06,05,01,58,21.50
2009,06,05,01,59,21.60
2009,06,05,02,00,21.60
2009,06,05,02,01,21.60
2009,06,05,02,02,21.60
2009,06,05,02,03,21.60
2009,06,05,02,04,21.60
2009,06,05,02,05,21.60
2009,06,05,02,06,21.60
2009,06,05,02,07,21.60
2009,06,05,02,08,21.60
2009,06,05,02,09,21.60
2009,06,05,02,10,21.60
2009,06,05,02,11,21.60
2009,06,05,02,12,21.60
2009,06,05,02,13,21.60
2009,06,05,02,14,21.60
2009,06,05,02,15,21.70
2009,06,05,02,16,21.70
2009,06,05,02,17,21.70
2009,06,05,02,18,21.70
2009,06,05,02,19,21.70
2009,06,05,02,20,21.70
2009,06,05,02,21,21.80
2009,06,05,02,22,21.80
2009,06,05,02,23,21.80
2009,06,05,02,24,21.80
2009,06,05,02,25,21.80
2009,06,05,02,26,21.80
2009,06,05,02,27,21.80
2009,06,05,02,28,21.80
2009,06,05,02,29,21.80
2009,06,05,02,30,21.80
2009,06,05,02,31,21.80
2009,06,05,02,32,21.80
2009,06,05,02,33,21.90
2009,06,05,02,34,21.90
2009,06,05,02,35,21.80
2009,06,05,02,36,21.80
2009,06,05,02,37,21.80
2009,06,05,02,38,21.50
2009,06,05,02,39,21.30
2009,06,05,02,40,21.20
2009,06,05,02,41,21.10
2009,06,05,02,42,21.10
2009,06,05,02,43,21.10
2009,06,05,02,44,21.10
2009,06,05,02,45,21.00
2009,06,05,02,46,20.90
2009,06,05,02,47,20.80
2009,06,05,02,48,20.60
2009,06,05,02,49,20.50
2009,06,05,02,50,20.40
2009,06,05,02,51,20.30
2009,06,05,02,52,20.20
2009,06,05,02,53,20.10
2009,06,05,02,54,20.00
2009,06,05,02,55,19.90
2009,06,05,02,56,19.80
2009,06,05,02,57,19.90
2009,06,05,02,58,20.00
2009,06,05,02,59,20.20
2009,06,05,03,00,20.30
2009,06,05,03,01,20.40
2009,06,05,03,02,20.50
2009,06,05,03,03,20.60
2009,06,05,03,04,20.60
2009,06,05,03,05,20.60
2009,06,05,03,06,20.60
2009,06,05,03,07,20.70
2009,06,05,03,08,20.70
2009,06,05,03,09,20.70
2009,06,05,03,10,20.70
2009,06,05,03,11,20.70
2009,06,05,03,12,20.70
2009,06,05,03,13,20.70
2009,06,05,03,14,20.70
2009,06,05,03,15,20.70
2009,06,05,03,16,20.70
2009,06,05,03,17,20.70
2009,06,05,03,18,20.70
2009,06,05,03,19,20.70
2009,06,05,03,20,20.60
2009,06,05,03,21,20.60
2009,06,05,03,22,20.60
2009,06,05,03,23,20.60
2009,06,05,03,24,20.60
2009,06,05,03,25,20.50
2009,06,05,03,26,20.50
2009,06,05,03,27,20.50
2009,06,05,03,28,20.50
2009,06,05,03,29,20.50
2009,06,05,03,30,20.50
2009,06,05,03,31,20.50
2009,06,05,03,32,20.50
2009,06,05,03,33,20.40
2009,06,05,03,34,20.40
2009,06,05,03,35,20.40
2009,06,05,03,36,20.40
2009,06,05,03,37,20.40
2009,06,05,03,38,20.40
2009,06,05,03,39,20.30
2009,06,05,03,40,20.30
2009,06,05,03,41,20.30
2009,06,05,03,42,20.20
2009,06,05,03,43,20.20
2009,06,05,03,44,20.20
2009,06,05,03,45,20.20
2009,06,05,03,46,20.20
2009,06,05,03,47,20.20
2009,06,05,03,48,20.20
2009,06,05,03,49,20.20
2009,06,05,03,50,20.20
2009,06,05,03,51,20.30
2009,06,05,03,52,20.30
2009,06,05,03,53,20.30
2009,06,05,03,54,20.30
2009,06,05,03,55,20.20
2009,06,05,03,56,20.20
2009,06,05,03,57,20.20
2009,06,05,03,58,20.20
2009,06,05,03,59,20.20
2009,06,05,04,00,20.20
2009,06,05,04,01,20.20
2009,06,05,04,02,20.20
2009,06,05,04,03,20.20
2009,06,05,04,04,20.10
2009,06,05,04,05,20.00
2009,06,05,04,06,19.90
2009,06,05,04,07,19.90
2009,06,05,04,08,19.80
2009,06,05,04,09,19.70
2009,06,05,04,10,19.70
2009,06,05,04,11,19.70
2009,06,05,04,12,19.70
2009,06,05,04,13,19.80
2009,06,05,04,14,19.80
2009,06,05,04,15,19.70
2009,06,05,04,16,19.70
2009,06,05,04,17,19.60
2009,06,05,04,18,19.50
2009,06,05,04,19,19.40
2009,06,05,04,20,19.30
2009,06,05,04,21,19.20
2009,06,05,04,22,19.10
2009,06,05,04,23,19.00
2009,06,05,04,24,18.90
2009,06,05,04,25,18.80
2009,06,05,04,26,18.80
2009,06,05,04,27,18.70
2009,06,05,04,28,18.70
2009,06,05,04,29,18.80
2009,06,05,04,30,18.80
2009,06,05,04,31,18.80
2009,06,05,04,32,18.80
2009,06,05,04,33,18.70
2009,06,05,04,34,18.70
2009,06,05,04,35,18.60
2009,06,05,04,36,18.40
2009,06,05,04,37,18.40
2009,06,05,04,38,18.30
2009,06,05,04,39,18.30
2009,06,05,04,40,18.20
2009,06,05,04,41,18.20
2009,06,05,04,42,18.10
2009,06,05,04,43,18.10
2009,06,05,04,44,18.10
2009,06,05,04,45,18.10
2009,06,05,04,46,18.10
2009,06,05,04,47,18.20
2009,06,05,04,48,18.20
2009,06,05,04,49,18.20
2009,06,05,04,50,18.20
2009,06,05,04,51,18.20
2009,06,05,04,52,18.20
2009,06,05,04,53,18.20
2009,06,05,04,54,18.20
2009,06,05,04,55,18.10
2009,06,05,04,56,18.10
2009,06,05,04,57,18.10
2009,06,05,04,58,18.10
2009,06,05,04,59,18.10
2009,06,05,05,00,18.10
2009,06,05,05,01,18.00
2009,06,05,05,02,18.00
2009,06,05,05,03,17.90
2009,06,05,05,04,17.80
2009,06,05,05,05,17.80
2009,06,05,05,06,17.70
2009,06,05,05,07,17.80
2009,06,05,05,08,17.80
2009,06,05,05,09,17.80
2009,06,05,05,10,17.70
2009,06,05,05,11,17.70
2009,06,05,05,12,17.70
2009,06,05,05,13,17.60
2009,06,05,05,14,17.60
2009,06,05,05,15,17.60
2009,06,05,05,16,17.50
2009,06,05,05,17,17.40
2009,06,05,05,18,17.40
2009,06,05,05,19,17.40
2009,06,05,05,20,17.30
2009,06,05,05,21,17.30
2009,06,05,05,22,17.30
2009,06,05,05,23,17.20
2009,06,05,05,24,17.20
2009,06,05,05,25,17.10
2009,06,05,05,26,17.10
2009,06,05,05,27,17.10
2009,06,05,05,28,17.00
2009,06,05,05,29,17.00
2009,06,05,05,30,16.90
2009,06,05,05,31,16.90
2009,06,05,05,32,16.90
2009,06,05,05,33,16.90
2009,06,05,05,34,16.80
2009,06,05,05,35,16.80
2009,06,05,05,36,16.80
2009,06,05,05,37,16.70
2009,06,05,05,38,16.70
2009,06,05,05,39,16.70
2009,06,05,05,40,16.70
2009,06,05,05,41,16.70
2009,06,05,05,42,16.80
2009,06,05,05,43,17.00
2009,06,05,05,44,17.20
2009,06,05,05,45,17.30
2009,06,05,05,46,17.50
2009,06,05,05,47,17.60
2009,06,05,05,48,17.70
2009,06,05,05,49,17.80
2009,06,05,05,50,18.00
2009,06,05,05,51,18.20
2009,06,05,05,52,18.30
2009,06,05,05,53,18.30
2009,06,05,05,54,18.40
2009,06,05,05,55,18.50
2009,06,05,05,56,18.50
2009,06,05,05,57,18.60
2009,06,05,05,58,18.60
2009,06,05,05,59,18.70
2009,06,05,06,00,18.70
2009,06,05,06,01,18.70
2009,06,05,06,02,18.70
2009,06,05,06,03,18.70
2009,06,05,06,04,18.70
2009,06,05,06,05,18.70
2009,06,05,06,06,18.70
2009,06,05,06,07,18.70
2009,06,05,06,08,18.70
2009,06,05,06,09,18.70
2009,06,05,06,10,18.70
2009,06,05,06,11,18.70
2009,06,05,06,12,18.70
2009,06,05,06,13,18.70
2009,06,05,06,14,18.70
2009,06,05,06,15,18.80
2009,06,05,06,16,18.80
2009,06,05,06,17,18.80
2009,06,05,06,18,18.90
2009,06,05,06,19,18.90
2009,06,05,06,20,18.90
2009,06,05,06,21,18.90
2009,06,05,06,22,18.90
2009,06,05,06,23,18.90
2009,06,05,06,24,18.90
2009,06,05,06,25,19.00
2009,06,05,06,26,19.00
2009,06,05,06,27,19.00
2009,06,05,06,28,19.00
2009,06,05,06,29,19.00
2009,06,05,06,30,19.00
2009,06,05,06,31,19.00
2009,06,05,06,32,19.00
2009,06,05,06,33,19.00
2009,06,05,06,34,19.00
2009,06,05,06,35,19.00
2009,06,05,06,36,19.00
2009,06,05,06,37,18.90
2009,06,05,06,38,19.00
2009,06,05,06,39,19.00
2009,06,05,06,40,19.10
2009,06,05,06,41,19.10
2009,06,05,06,42,19.10
2009,06,05,06,43,19.10
2009,06,05,06,44,19.10
2009,06,05,06,45,19.00
2009,06,05,06,46,19.00
2009,06,05,06,47,19.00
2009,06,05,06,48,19.00
2009,06,05,06,49,19.00
2009,06,05,06,50,19.10
2009,06,05,06,51,19.10
2009,06,05,06,52,19.10
2009,06,05,06,53,19.10
2009,06,05,06,54,19.10
2009,06,05,06,55,19.20
2009,06,05,06,56,19.20
2009,06,05,06,57,19.20
2009,06,05,06,58,19.20
2009,06,05,06,59,19.20
2009,06,05,07,00,19.20
2009,06,05,07,01,19.20
2009,06,05,07,02,19.20
2009,06,05,07,03,19.20
2009,06,05,07,04,19.10
2009,06,05,07,05,19.10
2009,06,05,07,06,19.00
2009,06,05,07,07,19.00
2009,06,05,07,08,19.00
2009,06,05,07,09,19.00
2009,06,05,07,10,19.00
2009,06,05,07,11,19.00
2009,06,05,07,12,19.10
2009,06,05,07,13,19.10
2009,06,05,07,14,19.10
2009,06,05,07,15,19.00
2009,06,05,07,16,19.00
2009,06,05,07,17,19.00
2009,06,05,07,18,19.00
2009,06,05,07,19,19.00
2009,06,05,07,20,19.00
2009,06,05,07,21,19.00
2009,06,05,07,22,19.10
2009,06,05,07,23,19.10
2009,06,05,07,24,19.10
2009,06,05,07,25,19.20
2009,06,05,07,26,19.20
2009,06,05,07,27,19.20
2009,06,05,07,28,19.30
2009,06,05,07,29,19.30
2009,06,05,07,30,19.30
2009,06,05,07,31,19.40
2009,06,05,07,32,19.40
2009,06,05,07,33,19.30
2009,06,05,07,34,19.40
2009,06,05,07,35,19.40
2009,06,05,07,36,19.30
2009,06,05,07,37,19.30
2009,06,05,07,38,19.30
2009,06,05,07,39,19.30
2009,06,05,07,40,19.30
2009,06,05,07,41,19.30
2009,06,05,07,42,19.30
2009,06,05,07,43,19.30
2009,06,05,07,44,19.30
2009,06,05,07,45,19.40
2009,06,05,07,46,19.50
2009,06,05,07,47,19.50
2009,06,05,07,48,19.60
2009,06,05,07,49,19.60
2009,06,05,07,50,19.60
2009,06,05,07,51,19.60
2009,06,05,07,52,19.60
2009,06,05,07,53,19.60
2009,06,05,07,54,19.70
2009,06,05,07,55,19.70
2009,06,05,07,56,19.80
2009,06,05,07,57,19.90
2009,06,05,07,58,20.00
2009,06,05,07,59,20.10
2009,06,05,08,00,20.20
2009,06,05,08,01,20.30
2009,06,05,08,02,20.30
2009,06,05,08,03,20.30
2009,06,05,08,04,20.20
2009,06,05,08,05,20.20
2009,06,05,08,06,20.10
2009,06,05,08,07,20.10
2009,06,05,08,08,20.10
2009,06,05,08,09,20.10
2009,06,05,08,10,20.10
2009,06,05,08,11,20.20
2009,06,05,08,12,20.20
2009,06,05,08,13,20.20
2009,06,05,08,14,20.20
2009,06,05,08,15,20.20
2009,06,05,08,16,20.20
2009,06,05,08,17,20.20
2009,06,05,08,18,20.20
2009,06,05,08,19,20.20
2009,06,05,08,20,20.30
2009,06,05,08,21,20.30
2009,06,05,08,22,20.30
2009,06,05,08,23,20.40
2009,06,05,08,24,20.40
2009,06,05,08,25,20.50
2009,06,05,08,26,20.60
2009,06,05,08,27,20.50
2009,06,05,08,28,20.40
2009,06,05,08,29,20.30
2009,06,05,08,30,20.20
2009,06,05,08,31,20.20
2009,06,05,08,32,20.30
2009,06,05,08,33,20.30
2009,06,05,08,34,20.30
2009,06,05,08,35,20.30
2009,06,05,08,36,20.30
2009,06,05,08,37,20.20
2009,06,05,08,38,20.20
2009,06,05,08,39,20.10
2009,06,05,08,40,20.10
2009,06,05,08,41,20.10
2009,06,05,08,42,20.10
2009,06,05,08,43,20.10
2009,06,05,08,44,20.10
2009,06,05,08,45,20.10
2009,06,05,08,46,20.10
2009,06,05,08,47,20.10
2009,06,05,08,48,20.10
2009,06,05,08,49,20.20
2009,06,05,08,50,20.20
2009,06,05,08,51,20.20
2009,06,05,08,52,20.20
2009,06,05,08,53,20.20
2009,06,05,08,54,20.20
2009,06,05,08,55,20.20
2009,06,05,08,56,20.20
2009,06,05,08,57,20.20
2009,06,05,08,58,20.20
2009,06,05,08,59,20.30
2009,06,05,09,00,20.30
2009,06,05,09,01,20.30
2009,06,05,09,02,20.20
2009,06,05,09,03,20.20
2009,06,05,09,04,20.20
2009,06,05,09,05,20.10
2009,06,05,09,06,20.10
2009,06,05,09,07,20.10
2009,06,05,09,08,20.10
2009,06,05,09,09,20.20
2009,06,05,09,10,20.20
2009,06,05,09,11,20.30
2009,06,05,09,12,20.30
2009,06,05,09,13,20.40
2009,06,05,09,14,20.30
2009,06,05,09,15,20.20
2009,06,05,09,16,20.20
2009,06,05,09,17,20.20
2009,06,05,09,18,20.20
2009,06,05,09,19,20.30
2009,06,05,09,20,20.30
2009,06,05,09,21,20.30
2009,06,05,09,22,20.30
2009,06,05,09,23,20.40
2009,06,05,09,24,20.50
2009,06,05,09,25,20.60
2009,06,05,09,26,20.60
2009,06,05,09,27,20.60
2009,06,05,09,28,20.70
2009,06,05,09,29,20.70
2009,06,05,09,30,20.70
2009,06,05,09,31,20.70
2009,06,05,09,32,20.70
2009,06,05,09,33,20.80
2009,06,05,09,34,20.80
2009,06,05,09,35,20.80
2009,06,05,09,36,20.80
2009,06,05,09,37,20.90
2009,06,05,09,38,20.90
2009,06,05,09,39,20.80
2009,06,05,09,40,20.80
2009,06,05,09,41,20.90
2009,06,05,09,42,20.90
2009,06,05,09,43,20.90
2009,06,05,09,44,21.00
2009,06,05,09,45,21.00
2009,06,05,09,46,21.10
2009,06,05,09,47,21.10
2009,06,05,09,48,21.10
2009,06,05,09,49,21.00
2009,06,05,09,50,21.00
2009,06,05,09,51,21.10
2009,06,05,09,52,21.10
2009,06,05,09,53,21.10
2009,06,05,09,54,21.10
2009,06,05,09,55,21.10
2009,06,05,09,56,21.20
2009,06,05,09,57,21.20
2009,06,05,09,58,21.30
2009,06,05,09,59,21.30
2009,06,05,10,00,21.20
2009,06,05,10,01,21.20
2009,06,05,10,02,21.10
2009,06,05,10,03,21.10
2009,06,05,10,04,21.00
2009,06,05,10,05,20.80
2009,06,05,10,06,20.80
2009,06,05,10,07,20.80
2009,06,05,10,08,20.70
2009,06,05,10,09,20.70
2009,06,05,10,10,20.70
2009,06,05,10,11,20.80
2009,06,05,10,12,20.80
2009,06,05,10,13,20.80
2009,06,05,10,14,20.90
2009,06,05,10,15,20.90
2009,06,05,10,16,20.90
2009,06,05,10,17,20.90
2009,06,05,10,18,20.90
2009,06,05,10,19,20.90
2009,06,05,10,20,20.90
2009,06,05,10,21,20.80
2009,06,05,10,22,20.80
2009,06,05,10,23,20.90
2009,06,05,10,24,20.90
2009,06,05,10,25,20.90
2009,06,05,10,26,20.90
2009,06,05,10,27,21.00
2009,06,05,10,28,21.10
2009,06,05,10,29,21.20
2009,06,05,10,30,21.30
2009,06,05,10,31,21.40
2009,06,05,10,32,21.40
2009,06,05,10,33,21.40
2009,06,05,10,34,21.40
2009,06,05,10,35,21.40
2009,06,05,10,36,21.50
2009,06,05,10,37,21.60
2009,06,05,10,38,21.70
2009,06,05,10,39,21.80
2009,06,05,10,40,21.80
2009,06,05,10,41,21.80
2009,06,05,10,42,21.90
2009,06,05,10,43,21.90
2009,06,05,10,44,21.90
2009,06,05,10,45,21.90
2009,06,05,10,46,21.90
2009,06,05,10,47,21.90
2009,06,05,10,48,22.00
2009,06,05,10,49,22.00
2009,06,05,10,50,22.00
2009,06,05,10,51,22.00
2009,06,05,10,52,21.90
2009,06,05,10,53,21.90
2009,06,05,10,54,21.80
2009,06,05,10,55,21.70
2009,06,05,10,56,21.70
2009,06,05,10,57,21.80
2009,06,05,10,58,21.80
2009,06,05,10,59,21.80
2009,06,05,11,00,21.80
2009,06,05,11,01,21.80
2009,06,05,11,02,21.90
2009,06,05,11,03,22.00
2009,06,05,11,04,22.00
2009,06,05,11,05,22.00
2009,06,05,11,06,22.00
2009,06,05,11,07,22.00
2009,06,05,11,08,21.90
2009,06,05,11,09,21.80
2009,06,05,11,10,21.80
2009,06,05,11,11,21.80
2009,06,05,11,12,21.90
2009,06,05,11,13,21.80
2009,06,05,11,14,21.60
2009,06,05,11,15,21.60
2009,06,05,11,16,21.60
2009,06,05,11,17,21.60
2009,06,05,11,18,21.60
2009,06,05,11,19,21.60
2009,06,05,11,20,21.70
2009,06,05,11,21,21.70
2009,06,05,11,22,21.60
2009,06,05,11,23,21.60
2009,06,05,11,24,21.60
2009,06,05,11,25,21.60
2009,06,05,11,26,21.60
2009,06,05,11,27,21.60
2009,06,05,11,28,21.60
2009,06,05,11,29,21.60
2009,06,05,11,30,21.70
2009,06,05,11,31,21.60
2009,06,05,11,32,21.50
2009,06,05,11,33,21.40
2009,06,05,11,34,21.30
2009,06,05,11,35,21.30
2009,06,05,11,36,21.30
2009,06,05,11,37,21.10
2009,06,05,11,38,21.00
2009,06,05,11,39,20.90
2009,06,05,11,40,20.90
2009,06,05,11,41,20.90
2009,06,05,11,42,20.90
2009,06,05,11,43,20.90
2009,06,05,11,44,20.90
2009,06,05,11,45,20.80
2009,06,05,11,46,20.80
2009,06,05,11,47,20.70
2009,06,05,11,48,20.70
2009,06,05,11,49,20.80
2009,06,05,11,50,20.80
2009,06,05,11,51,20.80
2009,06,05,11,52,20.90
2009,06,05,11,53,20.90
2009,06,05,11,54,20.80
2009,06,05,11,55,20.70
2009,06,05,11,56,20.70
2009,06,05,11,57,20.70
2009,06,05,11,58,20.80
2009,06,05,11,59,20.90
2009,06,05,12,00,20.90
2009,06,05,12,01,20.80
2009,06,05,12,02,20.90
2009,06,05,12,03,21.00
2009,06,05,12,04,21.20
2009,06,05,12,05,21.20
2009,06,05,12,06,21.20
2009,06,05,12,07,21.30
2009,06,05,12,08,21.40
2009,06,05,12,09,21.50
2009,06,05,12,10,21.60
2009,06,05,12,11,21.60
2009,06,05,12,12,21.60
2009,06,05,12,13,21.60
2009,06,05,12,14,21.70
2009,06,05,12,15,21.80
2009,06,05,12,16,21.80
2009,06,05,12,17,21.90
2009,06,05,12,18,22.00
2009,06,05,12,19,22.10
2009,06,05,12,20,22.10
2009,06,05,12,21,22.10
2009,06,05,12,22,22.10
2009,06,05,12,23,22.10
2009,06,05,12,24,22.20
2009,06,05,12,25,22.20
2009,06,05,12,26,22.20
2009,06,05,12,27,22.30
2009,06,05,12,28,22.40
2009,06,05,12,29,22.40
2009,06,05,12,30,22.40
2009,06,05,12,31,22.40
2009,06,05,12,32,22.40
2009,06,05,12,33,22.50
2009,06,05,12,34,22.60
2009,06,05,12,35,22.60
2009,06,05,12,36,22.50
2009,06,05,12,37,22.30
2009,06,05,12,38,22.30
2009,06,05,12,39,22.30
2009,06,05,12,40,22.30
2009,06,05,12,41,22.20
2009,06,05,12,42,22.20
2009,06,05,12,43,22.10
2009,06,05,12,44,22.00
2009,06,05,12,45,21.90
2009,06,05,12,46,21.80
2009,06,05,12,47,21.80
2009,06,05,12,48,21.60
2009,06,05,12,49,21.50
2009,06,05,12,50,21.40
2009,06,05,12,51,21.40
2009,06,05,12,52,21.30
2009,06,05,12,53,21.40
2009,06,05,12,54,21.50
2009,06,05,12,55,21.60
2009,06,05,12,56,21.60
2009,06,05,12,57,21.70
2009,06,05,12,58,21.80
2009,06,05,12,59,21.80
2009,06,05,13,00,22.00
2009,06,05,13,01,22.10
2009,06,05,13,02,22.20
2009,06,05,13,03,22.10
2009,06,05,13,04,22.00
2009,06,05,13,05,22.00
2009,06,05,13,06,22.10
2009,06,05,13,07,22.20
2009,06,05,13,08,22.20
2009,06,05,13,09,22.20
2009,06,05,13,10,22.30
2009,06,05,13,11,22.30
2009,06,05,13,12,22.40
2009,06,05,13,13,22.40
2009,06,05,13,14,22.20
2009,06,05,13,15,22.10
2009,06,05,13,16,22.10
2009,06,05,13,17,22.10
2009,06,05,13,18,22.20
2009,06,05,13,19,22.20
2009,06,05,13,20,22.20
2009,06,05,13,21,22.20
2009,06,05,13,22,22.20
2009,06,05,13,23,22.10
2009,06,05,13,24,22.20
2009,06,05,13,25,22.20
2009,06,05,13,26,22.20
2009,06,05,13,27,22.30
2009,06,05,13,28,22.30
2009,06,05,13,29,22.20
2009,06,05,13,30,22.20
2009,06,05,13,31,22.20
2009,06,05,13,32,22.20
2009,06,05,13,33,22.10
2009,06,05,13,34,22.00
2009,06,05,13,35,22.00
2009,06,05,13,36,22.00
2009,06,05,13,37,22.10
2009,06,05,13,38,22.10
2009,06,05,13,39,22.20
2009,06,05,13,40,22.40
2009,06,05,13,41,22.40
2009,06,05,13,42,22.40
2009,06,05,13,43,22.30
2009,06,05,13,44,22.20
2009,06,05,13,45,22.10
2009,06,05,13,46,22.20
2009,06,05,13,47,22.20
2009,06,05,13,48,22.20
2009,06,05,13,49,22.10
2009,06,05,13,50,22.20
2009,06,05,13,51,22.20
2009,06,05,13,52,22.20
2009,06,05,13,53,22.30
2009,06,05,13,54,22.40
2009,06,05,13,55,22.50
2009,06,05,13,56,22.50
2009,06,05,13,57,22.50
2009,06,05,13,58,22.40
2009,06,05,13,59,22.50
2009,06,05,14,00,22.60
2009,06,05,14,01,22.50
2009,06,05,14,02,22.50
2009,06,05,14,03,22.40
2009,06,05,14,04,22.40
2009,06,05,14,05,22.40
2009,06,05,14,06,22.30
2009,06,05,14,07,22.20
2009,06,05,14,08,22.20
2009,06,05,14,09,22.20
2009,06,05,14,10,22.20
2009,06,05,14,11,22.30
2009,06,05,14,12,22.30
2009,06,05,14,13,22.20
2009,06,05,14,14,22.20
2009,06,05,14,15,22.20
2009,06,05,14,16,22.20
2009,06,05,14,17,22.20
2009,06,05,14,18,22.40
2009,06,05,14,19,22.50
2009,06,05,14,20,22.50
2009,06,05,14,21,22.50
2009,06,05,14,22,22.30
2009,06,05,14,23,22.20
2009,06,05,14,24,22.10
2009,06,05,14,25,22.10
2009,06,05,14,26,22.10
2009,06,05,14,27,22.10
2009,06,05,14,28,22.10
2009,06,05,14,29,22.10
2009,06,05,14,30,22.10
2009,06,05,14,31,22.00
2009,06,05,14,32,22.00
2009,06,05,14,33,22.10
2009,06,05,14,34,22.00
2009,06,05,14,35,22.00
2009,06,05,14,36,21.90
2009,06,05,14,37,22.00
2009,06,05,14,38,22.20
2009,06,05,14,39,22.40
2009,06,05,14,40,22.40
2009,06,05,14,41,22.30
2009,06,05,14,42,22.30
2009,06,05,14,43,22.30
2009,06,05,14,44,22.40
2009,06,05,14,45,22.30
2009,06,05,14,46,22.30
2009,06,05,14,47,22.20
2009,06,05,14,48,22.10
2009,06,05,14,49,22.00
2009,06,05,14,50,22.10
2009,06,05,14,51,22.20
2009,06,05,14,52,22.20
2009,06,05,14,53,22.30
2009,06,05,14,54,22.40
2009,06,05,14,55,22.40
2009,06,05,14,56,22.30
2009,06,05,14,57,22.20
2009,06,05,14,58,22.20
2009,06,05,14,59,22.20
2009,06,05,15,00,22.20
2009,06,05,15,01,22.30
2009,06,05,15,02,22.40
2009,06,05,15,03,22.40
2009,06,05,15,04,22.30
2009,06,05,15,05,22.20
2009,06,05,15,06,22.30
2009,06,05,15,07,22.30
2009,06,05,15,08,22.20
2009,06,05,15,09,22.20
2009,06,05,15,10,22.20
2009,06,05,15,11,22.20
2009,06,05,15,12,22.10
2009,06,05,15,13,22.20
2009,06,05,15,14,22.20
2009,06,05,15,15,22.30
2009,06,05,15,16,22.30
2009,06,05,15,17,22.20
2009,06,05,15,18,22.20
2009,06,05,15,19,22.20
2009,06,05,15,20,22.10
2009,06,05,15,21,22.10
2009,06,05,15,22,22.10
2009,06,05,15,23,22.10
2009,06,05,15,24,22.00
2009,06,05,15,25,22.00
2009,06,05,15,26,21.90
2009,06,05,15,27,21.80
2009,06,05,15,28,21.80
2009,06,05,15,29,21.80
2009,06,05,15,30,21.80
2009,06,05,15,31,21.80
2009,06,05,15,32,21.80
2009,06,05,15,33,21.80
2009,06,05,15,34,21.80
2009,06,05,15,35,22.00
2009,06,05,15,36,22.00
2009,06,05,15,37,22.00
2009,06,05,15,38,22.00
2009,06,05,15,39,21.90
2009,06,05,15,40,21.90
2009,06,05,15,41,21.90
2009,06,05,15,42,21.90
2009,06,05,15,43,21.80
2009,06,05,15,44,21.80
2009,06,05,15,45,21.90
2009,06,05,15,46,21.80
2009,06,05,15,47,21.80
2009,06,05,15,48,21.70
2009,06,05,15,49,21.70
2009,06,05,15,50,21.70
2009,06,05,15,51,21.80
2009,06,05,15,52,21.80
2009,06,05,15,53,21.70
2009,06,05,15,54,21.80
2009,06,05,15,55,21.80
2009,06,05,15,56,21.80
2009,06,05,15,57,21.90
2009,06,05,15,58,21.90
2009,06,05,15,59,21.90
2009,06,05,16,00,21.90
2009,06,05,16,01,22.00
2009,06,05,16,02,22.00
2009,06,05,16,03,21.90
2009,06,05,16,04,22.00
2009,06,05,16,05,22.10
2009,06,05,16,06,22.10
2009,06,05,16,07,22.10
2009,06,05,16,08,21.90
2009,06,05,16,09,21.90
2009,06,05,16,10,21.90
2009,06,05,16,11,21.90
2009,06,05,16,12,21.90
2009,06,05,16,13,22.00
2009,06,05,16,14,22.10
2009,06,05,16,15,22.00
2009,06,05,16,16,21.90
2009,06,05,16,17,21.80
2009,06,05,16,18,21.70
2009,06,05,16,19,21.70
2009,06,05,16,20,21.80
2009,06,05,16,21,21.80
2009,06,05,16,22,21.70
2009,06,05,16,23,21.60
2009,06,05,16,24,21.60
2009,06,05,16,25,21.70
2009,06,05,16,26,21.70
2009,06,05,16,27,21.80
2009,06,05,16,28,21.80
2009,06,05,16,29,21.90
2009,06,05,16,30,22.00
2009,06,05,16,31,22.00
2009,06,05,16,32,21.90
2009,06,05,16,33,21.80
2009,06,05,16,34,21.80
2009,06,05,16,35,21.80
2009,06,05,16,36,21.80
2009,06,05,16,37,21.90
2009,06,05,16,38,21.90
2009,06,05,16,39,21.80
2009,06,05,16,40,21.70
2009,06,05,16,41,21.70
2009,06,05,16,42,21.70
2009,06,05,16,43,21.60
2009,06,05,16,44,21.60
2009,06,05,16,45,21.60
2009,06,05,16,46,21.70
2009,06,05,16,47,21.70
2009,06,05,16,48,21.60
2009,06,05,16,49,21.60
2009,06,05,16,50,21.70
2009,06,05,16,51,21.70
2009,06,05,16,52,21.60
2009,06,05,16,53,21.50
2009,06,05,16,54,21.40
2009,06,05,16,55,21.40
2009,06,05,16,56,21.40
2009,06,05,16,57,21.40
2009,06,05,16,58,21.40
2009,06,05,16,59,21.30
2009,06,05,17,00,21.30
2009,06,05,17,01,21.30
2009,06,05,17,02,21.30
2009,06,05,17,03,21.20
2009,06,05,17,04,21.10
2009,06,05,17,05,21.10
2009,06,05,17,06,21.00
2009,06,05,17,07,21.00
2009,06,05,17,08,21.00
2009,06,05,17,09,21.00
2009,06,05,17,10,20.90
2009,06,05,17,11,20.80
2009,06,05,17,12,20.80
2009,06,05,17,13,20.80
2009,06,05,17,14,20.80
2009,06,05,17,15,20.70
2009,06,05,17,16,20.70
2009,06,05,17,17,20.70
2009,06,05,17,18,20.70
2009,06,05,17,19,20.60